Location: Auckland
(36.8670°S, 174.7670°E)
Time: 12:27:50
(UTC+12:00)

Courier 1B Rocket - Pass Details

Date: 28 July 2019
Orbit: 920 x 1202 km, 28.3° (Epoch: 19 August)

Event Time Altitude Azimuth Distance (km) Brightness Sun altitude
Rises 04:31:56 0° 281° (W) 4,103 - -34.2°
Reaches altitude 10° 04:34:56 10° 286° (WNW) 3,142 - -33.6°
Exits shadow 04:42:12 44° 354° (N) 1,596 5.9 -32.1°
Maximum altitude 04:42:17 44° 355° (N) 1,596 6.0 -32.1°
Drops below altitude 10° 04:49:25 10° 64° (ENE) 3,052 8.3 -30.7°
Sets 04:52:18 0° 70° (ENE) 3,975 9.2 -30.1°
